Regional Weather Roundup
Issued by NWS Jackson, KY

Home | Current Version | Previous Version | Graphics & Text | Print | Product List | Glossary On
Versions: 1 2 3 4 5 6 7 8 9 10 11 12 13 14 15 16 17 18 19 20 21 22 23 24 25 26 27
000
ASUS43 KJKL 240110
RWRJKL

EAST KENTUCKY HOURLY WEATHER ROUNDUP
NATIONAL WEATHER SERVICE JACKSON KY
900 PM EDT FRI SEP 23 2016

NOTE: "FAIR" INDICATES FEW OR NO CLOUDS BELOW 12,000 FEET WITH
NO SIGNIFICANT WEATHER AND/OR OBSTRUCTIONS TO VISIBILITY.

* THESE REPORTS ARE NOT UNDER NWS QUALITY CONTROL AND MAY NOT
  REPORT WEATHER SUCH AS PRECIPITATION AND FOG.

KYZ079-080-083-085-087-088-110-112-115-119-120-240200
...EASTERN KENTUCKY...

CITY           SKY/WX    TMP DP  RH WIND       PRES   REMARKS
JACKSON        CLEAR     79  63  57 NW3       30.09R
LONDON         CLEAR     74  64  71 CALM      30.08R
SOMERSET*      CLEAR     72  64  78 CALM      30.08S
MONTICELLO*    CLEAR     69  63  81 VRB6      30.09R
WILLIAMSBURG*  CLEAR     72  68  88 CALM      30.08S
MIDDLESBORO*   CLEAR     71  65  80 CALM      30.09S
HARLAN APT*    CLEAR     70  63  78 CALM      30.11R
PIKE CO APT*   MOCLDY    78  63  60 N3        30.09S
BIG SANDY APT* CLEAR     76  65  68 CALM      30.08R
MOREHEAD APT*  CLOUDY    77  64  65 CALM      30.08R
ASHLAND*       CLOUDY    73  68  83 CALM      30.02S
$$

KYZ035-036-041-042-044-050-067-078-099-240200
...CENTRAL KENTUCKY...

CITY           SKY/WX    TMP DP  RH WIND       PRES   REMARKS
MT STERLING*   CLEAR     72  70  94 SW5       30.08R
FLEMING/MASON* PTCLDY    79  62  55 CALM      30.07R
DANVILLE*      CLEAR     72  68  88 CALM      30.08R
LEXINGTON      CLEAR     79  62  56 CALM      30.07R
FRANKFORT      CLEAR     75  65  70 N3        30.05R
LOUISVILLE     PTCLDY    81  62  52 NW6       30.03R
LEBANON*         N/A     77  64  65 CALM      30.07R HAZE
GLASGOW*       CLEAR     71  66  85 CALM      30.05S
BOWLING GREEN  CLEAR     76  66  71 CALM      30.05R
$$

KYZ091>093-OHZ055-061-077-WVZ005-015-034-035-042-240200
...SOUTHERN OHIO/WEST VIRGINIA...

CITY           SKY/WX    TMP DP  RH WIND       PRES   REMARKS
COVINGTON      MOCLDY    76  66  71 W3        30.05S
COLUMBUS       PTCLDY    80  64  58 CALM      30.03R
DAYTON         MOCLDY    79  62  56 VRB7      30.06R
WILMINGTON     PTCLDY    72  64  76 CALM      30.06R
HUNTINGTON     CLEAR     78  59  51 CALM      30.04R
CHARLESTON     PTCLDY    75  62  64 CALM      30.05R
PINEVILLE*     CLEAR     67  63  85 MISG      30.16R
BECKLEY        CLEAR     67  60  78 CALM      30.15R
BLUEFIELD      CLEAR     69  58  67 W3        30.17R
LOGAN CO APT*    N/A     77  64  65 CALM      30.09R
$$

VAZ002-007-008-TNZ017-027-036-066-071-240200
...SOUTHWEST VIRGINIA/EAST TENNESSEE...

CITY           SKY/WX    TMP DP  RH WIND       PRES   REMARKS
WISE*          CLEAR     72  52  49 CALM      30.17S
JONESVILLE*      N/A     70  64  83 CALM      30.11R
ABINGDON*      CLEAR     73  63  70 CALM      30.12R
BRISTOL        PTCLDY    71  62  73 CALM      30.08R
MORRISTOWN*    CLEAR     75  63  64 CALM      30.07R
SEVIERVILLE*   CLEAR     73  61  64 CALM      30.05R
KNOXVILLE      PTCLDY    79  60  52 CALM      30.04R
OAK RIDGE      CLEAR     77  65  66 CALM      30.07R
CROSSVILLE     CLEAR     73  62  68 NW3       30.12R
NASHVILLE      CLEAR     82  63  52 NE5       30.04S
$$

...KEY TO REMARKS...
VSB - VISIBILITY IN MILES
WCI - WIND CHILL INDEX
HX  - HEAT INDEX

$$




USA.gov is the U.S. government's official web portal to all federal, state and local government web resources and services.